GW3786 Weather Reports


time (UTC)temp
C
wind
direction
speed
KPH
gust
KPH
rain 1hr
cm
rain 24hr
cm
rain mn
cm
humidity
%
barometer
mb
20260506184651 12 311 9.7 16.1 0.00 2.64 0.66 61 1011.4
20260506183151 12 307 8.0 16.1 0.00 2.64 0.66 63 1011.4
20260506181651 12 336 8.0 17.7 0.00 2.64 0.66 61 1011.3
20260506180151 12 305 6.4 19.3 0.00 2.64 0.66 62 1011.2
20260506174652 12 329 9.7 20.9 0.00 2.64 0.66 61 1011.3
20260506173151 12 304 9.7 20.9 0.00 2.64 0.66 61 1011.2
20260506171651 12 316 6.4 20.9 0.00 2.64 0.66 62 1011.3
20260506170847 12 288 8.0 14.5 0.00 2.64 0.66 67 1011.2
20260506164651 11 317 8.0 20.9 0.00 2.64 0.66 66 1011.2
20260506163151 11 334 9.7 19.3 0.00 2.64 0.66 68 1011.3
20260506161651 10 289 6.4 17.7 0.00 2.64 0.66 75 1011.1
20260506160151 10 352 8.0 16.1 0.00 2.64 0.66 76 1011.2
20260506154651 10 356 8.0 14.5 0.00 2.64 0.66 74 1010.9
20260506153150 10 13 6.4 14.5 0.00 2.64 0.66 75 1010.8
20260506151651 9 288 8.0 19.3 0.00 2.64 0.66 77 1010.5
20260506150147 8 7 8.0 12.9 0.00 2.64 0.66 77 1010.6
20260506144647 8 316 8.0 16.1 0.00 2.64 0.66 80 1010.4
20260506143146 8 340 9.7 17.7 0.00 2.64 0.66 80 1009.8
20260506141647 7 309 8.0 16.1 0.00 2.64 0.66 83 1009.8
20260506140147 7 325 8.0 16.1 0.00 2.64 0.66 86 1009.6
20260506134643 7 330 8.0 16.1 0.00 2.64 0.66 89 1009.6
20260506133143 6 333 6.4 14.5 0.00 2.64 0.66 91 1009.5
20260506131643 6 327 6.4 16.1 0.00 2.64 0.66 92 1009.8
20260506130143 6 307 8.0 14.5 0.00 2.64 0.66 93 1009.4
20260506124643 6 342 4.8 12.9 0.00 2.64 0.66 93 1009.0
20260506123143 6 326 3.2 9.7 0.00 2.64 0.66 94 1008.8
20260506121642 6 16 3.2 6.4 0.00 2.64 0.66 94 1008.4
20260506120141 6 43 4.8 11.3 0.00 2.64 0.66 94 1008.4
20260506114641 6 4 4.8 11.3 0.00 2.64 0.66 96 1008.1
20260506113141 6 22 4.8 11.3 0.00 2.64 0.66 96 1007.8
20260506111640 6 1 6.4 11.3 0.00 2.64 0.66 96 1007.8
20260506110139 6 359 4.8 12.9 0.00 2.64 0.66 96 1007.9
20260506104640 6 29 4.8 11.3 0.00 2.64 0.66 96 1007.3
20260506103136 6 326 3.2 9.7 0.00 2.64 0.66 96 1008.0
20260506101634 6 326 4.8 11.3 0.00 2.64 0.66 96 1007.1
20260506100831 6 30 6.4 12.9 0.03 2.64 0.66 96 1006.3
20260506094632 6 49 4.8 14.5 0.08 2.64 0.66 96 1005.8
20260506093132 6 38 8.0 14.5 0.10 2.64 0.66 96 1006.5
20260506091632 6 14 6.4 16.1 0.13 2.64 0.66 96 1006.5
20260506090132 6 27 6.4 14.5 0.10 2.62 0.64 96 1006.8
20260506084631 6 17 4.8 12.9 0.05 2.57 0.58 96 1006.8
20260506083124 6 23 6.4 12.9 0.08 2.54 0.56 96 1006.8
20260506081624 6 21 6.4 14.5 0.10 2.51 0.53 96 1006.6
20260506080125 6 337 8.0 17.7 0.15 2.51 0.53 95 1006.6
20260506073124 7 343 8.0 20.9 0.23 2.46 0.48 96 1006.2
20260506071624 7 41 6.4 14.5 0.23 2.44 0.43 96 1006.1
20260506070122 7 16 8.0 16.1 0.25 2.44 0.38 96 1006.1
20260506061622 8 40 8.0 12.9 0.15 2.24 0.18 96 1006.0
20260506060122 8 43 9.7 17.7 0.10 2.18 0.13 96 1006.0
20260506050122 8 41 4.8 8.0 0.03 2.08 0.03 96 1006.6
20260506044621 8 51 4.8 9.7 0.03 2.08 0.03 96 1006.5
20260506043122 8 59 6.4 12.9 0.03 2.06 0.00 96 1006.5
20260506041623 8 36 4.8 8.0 0.08 2.06 0.00 96 1006.7
20260506040119 8 41 3.2 8.0 0.13 2.06 0.00 95 1006.8
20260506034620 8 26 4.8 11.3 0.15 2.06 2.06 95 1006.9
20260506033809 8 11 4.8 11.3 0.18 2.03 2.03 95 1007.2
20260506032313 9 52 6.4 14.5 0.15 1.98 1.98 95 1007.5
20260506030114 9 324 9.7 16.1 0.18 1.93 1.93 94 1007.5
20260506025326 10 345 9.7 17.7 0.18 1.91 1.91 94 1007.3
20260506023114 11 312 6.4 19.3 0.18 1.85 1.85 92 1007.1
20260506021614 13 280 1.6 8.0 0.20 1.83 1.83 95 1006.9
20260506020113 13 209 1.6 12.9 0.18 1.75 1.75 95 1007.0
20260506014614 13 168 1.6 9.7 0.23 1.73 1.73 95 1006.9
20260506013108 13 347 0.0 4.8 0.46 1.68 1.68 95 1007.0
20260506011608 13 129 1.6 9.7 0.51 1.63 1.63 95 1006.8
20260506010106 13 222 1.6 11.3 0.51 1.57 1.57 95 1006.7
20260506004606 13 288 1.6 6.4 0.43 1.50 1.50 95 1006.6
20260506003107 13 259 0.0 3.2 0.25 1.22 1.24 94 1006.6
20260506001605 13 213 0.0 6.4 0.20 1.12 1.12 94 1006.5
20260505234602 13 259 1.6 9.7 0.25 1.07 1.07 94 1006.6
20260505233103 13 316 1.6 8.0 0.15 0.97 0.97 93 1006.8
20260505231602 13 259 3.2 12.9 0.15 0.91 0.91 93 1007.0
20260505224603 14 305 1.6 8.0 0.71 0.81 0.81 92 1007.0
20260505223101 14 275 1.6 9.7 0.74 0.81 0.81 92 1007.3
20260505221602 14 224 1.6 11.3 0.69 0.76 0.76 91 1007.2
20260505220059 15 227 4.8 19.3 0.58 0.66 0.69 89 1007.2
20260505214559 16 274 6.4 16.1 0.03 0.10 0.10 85 1006.5
20260505213100 17 53 1.6 4.8 0.00 0.08 0.08 80 1006.0
20260505211601 18 303 0.0 3.2 0.00 0.08 0.08 73 1006.1
20260505210101 18 241 1.6 9.7 0.00 0.08 0.08 72 1006.0
20260505204557 18 229 1.6 11.3 0.00 0.08 0.08 72 1006.4
20260505203057 18 211 1.6 9.7 0.00 0.08 0.08 72 1006.6
20260505202241 18 259 3.2 19.3 0.00 0.08 0.08 71 1006.6
20260505200804 18 162 3.2 11.3 0.00 0.08 0.08 72 1006.8
20260505194550 17 224 3.2 19.3 0.00 0.08 0.08 73 1007.0
20260505193049 17 203 1.6 9.7 0.00 0.08 0.08 74 1007.1
20260505191549 17 248 3.2 16.1 0.00 0.08 0.08 73 1007.3
20260505190049 17 227 3.2 11.3 0.00 0.08 0.08 72 1007.3
20260505185245 18 84 4.8 14.5 0.00 0.08 0.08 71 1007.3